Haines, AK

5:40 AM AKDT on October 20, 2017 (GMT -0800)
Haines

Weather History for PAHN - March, 2012

Change the Weather History Date:

Friday, March 23, 2012

  Actual Average Record
Temperature  
Mean Temperature 28 °F -  
Max Temperature 37 °F 37 °F 51 °F (1980)
Min Temperature 19 °F 27 °F 7 °F (2001)
Degree Days  
Heating Degree Days 37    
Moisture  
Dew Point 14 °F    
Average Humidity 59    
Maximum Humidity 88    
Minimum Humidity 43    
Precipitation  
Precipitation 0.00 in - - ()
Sea Level Pressure  
Sea Level Pressure 30.15 in    
Wind  
Wind Speed 10 mph (WNW)    
Max Wind Speed 15 mph    
Max Gust Speed 22 mph    
Visibility 10 miles    
Events      
Averages and records for this station are not official NWS values.
T = Trace of Precipitation, MM = Missing Value Source: NWS Daily Summary

Daily Weather History Graph

Daily Weather History Graph

Search for Another Location

Airport or City:

Trip Planner

Search our weather history database for the weather conditions in past years. The results will help you decide how hot, cold, wet, or windy it might be!

Date:

Astronomy

Mar. 23, 2012 Rise Set
Actual Time 6:52 AM AKDT 7:25 PM AKDT
Civil Twilight 6:12 AM AKDT 8:06 PM AKDT
Nautical Twilight 5:22 AM AKDT 8:56 PM AKDT
Astronomical Twilight 4:28 AM AKDT 9:50 PM AKDT
Moon 6:38 AM AKDT (3/23) 9:31 PM AKDT (3/23)
Length of Visible Light 13h 54m
Length of Day
12h 32m
New Moon, 1% of the Moon is Illuminated
Mar 23
New Moon
Mar 30
First Quarter
Apr 6
Full
Apr 13
Last Quarter
Apr 20
New

Hourly Weather History & Observations

Time (AKDT) Temp. Windchill Dew Point Humidity Pressure Visibility Wind Dir Wind Speed Gust Speed Precip Events Conditions
12:54 AM 27.0 °F 16.1 °F 8.1 °F 45% 30.12 in 10.0 mi NW 12.7 mph - N/A   Clear
1:54 AM 26.1 °F 16.2 °F 9.0 °F 49% 30.12 in 10.0 mi NW 10.4 mph - N/A   Clear
2:54 AM 24.1 °F 12.0 °F 7.0 °F 48% 30.13 in 10.0 mi WNW 13.8 mph - N/A   Clear
3:54 AM 25.0 °F 13.1 °F 7.0 °F 46% 30.13 in 10.0 mi NW 13.8 mph - N/A   Clear
4:54 AM 23.0 °F 10.1 °F 8.1 °F 53% 30.14 in 10.0 mi WNW 15.0 mph - N/A   Clear
5:54 AM 21.9 °F 9.2 °F 8.1 °F 55% 30.14 in 10.0 mi WNW 13.8 mph 21.9 mph N/A   Clear
6:54 AM 19.9 °F 6.2 °F 8.1 °F 60% 30.15 in 10.0 mi WNW 15.0 mph - N/A   Clear
7:54 AM 21.0 °F 8.1 °F 8.1 °F 57% 30.16 in 10.0 mi WNW 13.8 mph - N/A   Clear
8:54 AM 21.0 °F 8.1 °F 9.0 °F 60% 30.17 in 10.0 mi WNW 13.8 mph - N/A   Clear
9:54 AM 23.0 °F 10.1 °F 10.0 °F 58% 30.17 in 10.0 mi WNW 15.0 mph - N/A   Clear
10:54 AM 27.0 °F 15.6 °F 10.0 °F 49% 30.17 in 10.0 mi WNW 13.8 mph - N/A   Clear
11:54 AM 30.0 °F 19.1 °F 10.9 °F 45% 30.17 in 10.0 mi WNW 15.0 mph - N/A   Clear
12:54 PM 33.1 °F 24.4 °F 12.9 °F 43% 30.17 in 10.0 mi WNW 11.5 mph - N/A   Clear
1:54 PM 32.0 °F 28.7 °F 17.1 °F 54% 30.17 in 10.0 mi SSE 3.5 mph - N/A   Clear
2:54 PM 34.0 °F - 18.0 °F 52% 30.17 in 10.0 mi Calm Calm - N/A   Clear
3:54 PM 34.0 °F 31.0 °F 18.0 °F 52% 30.16 in 10.0 mi SE 3.5 mph - N/A   Clear
4:54 PM 34.0 °F 28.0 °F 19.9 °F 56% 30.14 in 10.0 mi SSE 6.9 mph - N/A   Clear
5:54 PM 37.0 °F 32.4 °F 19.0 °F 48% 30.13 in 10.0 mi East 5.8 mph - N/A   Clear
6:54 PM 32.0 °F - 21.0 °F 64% 30.14 in 10.0 mi Calm Calm - N/A   Clear
7:54 PM 28.9 °F - 21.9 °F 75% 30.14 in 10.0 mi Calm Calm - N/A   Clear
8:54 PM 23.0 °F - 19.0 °F 85% 30.14 in 10.0 mi Calm Calm - N/A   Clear
9:54 PM 24.1 °F - 21.0 °F 88% 30.14 in 10.0 mi Calm Calm - N/A   Clear
10:54 PM 24.1 °F - 21.0 °F 88% 30.14 in 10.0 mi Calm Calm - N/A   Clear
11:54 PM 23.0 °F - 19.9 °F 88% 30.14 in 10.0 mi Calm Calm - N/A   Clear